EXS52U EGSS-LERS

Flight info

Callsign EXS52U
Flight time 1h 54m
Altitude 36000
Route NUGBO M183 SILVA Q41 COWLY UT71 VAPID UN859 SOPIL DCT BALAN DCT EVPOK DCT NARAK DCT GAI DCT LOMRA DCT ROCAN DCT PUMAL N31 BERGA
Aircraft A321/M-SDE3FGHIRWY/LB1

Departure

Time 2026-05-04 07:16
Airport London Stansted Airport (EGSS)

Arrival

Time 2026-05-04 09:10
Airport Reus Airport (LERS)
Time Latitude Longitude Altitude Speed Heading
2026-05-04 06:37 51.88820 0.25466 355 ft 0 kts 43°
2026-05-04 07:01 51.88778 0.25403 350 ft 4 kts 30°
2026-05-04 07:01 51.88757 0.25396 351 ft 4 kts 334°
2026-05-04 07:02 51.88738 0.25418 354 ft 1 kts 313°
2026-05-04 07:02 51.88735 0.25424 356 ft 0 kts 313°
2026-05-04 07:08 51.88808 0.25296 350 ft 17 kts 313°
2026-05-04 07:09 51.88888 0.25159 355 ft 16 kts 313°
2026-05-04 07:09 51.88958 0.25024 350 ft 15 kts 300°
2026-05-04 07:09 51.89003 0.24872 352 ft 15 kts 309°
2026-05-04 07:09 51.89012 0.24739 357 ft 12 kts 236°
2026-05-04 07:10 51.88956 0.24646 349 ft 11 kts 223°
2026-05-04 07:10 51.88900 0.24561 351 ft 13 kts 221°
2026-05-04 07:12 51.87879 0.23033 349 ft 66 kts 223°
2026-05-04 07:12 51.87642 0.22672 347 ft 30 kts 223°
2026-05-04 07:12 51.87486 0.22439 339 ft 30 kts 221°
2026-05-04 07:12 51.87398 0.22258 337 ft 17 kts 264°
2026-05-04 07:13 51.87452 0.22108 334 ft 16 kts 311°
2026-05-04 07:13 51.87532 0.22027 336 ft 13 kts 22°
2026-05-04 07:13 51.87550 0.22050 333 ft 0 kts 43°
2026-05-04 07:15 51.87596 0.22118 334 ft 28 kts 42°
2026-05-04 07:15 51.87922 0.22607 345 ft 97 kts 42°
2026-05-04 07:15 51.88561 0.23565 349 ft 151 kts 42°
2026-05-04 07:16 51.89403 0.24812 703 ft 167 kts 41°
2026-05-04 07:16 51.90257 0.26100 1457 ft 168 kts 42°
2026-05-04 07:16 51.91114 0.27383 2198 ft 168 kts 42°
2026-05-04 07:16 51.91984 0.28704 2610 ft 182 kts 41°
2026-05-04 07:17 51.93177 0.29623 2791 ft 201 kts
2026-05-04 07:17 51.94512 0.28841 2935 ft 217 kts 317°
2026-05-04 07:17 51.95456 0.26885 3234 ft 225 kts 308°
2026-05-04 07:17 51.96678 0.25212 3408 ft 242 kts 328°
2026-05-04 07:18 51.98005 0.23397 3761 ft 258 kts 302°
2026-05-04 07:18 51.98574 0.20630 4402 ft 263 kts 277°
2026-05-04 07:18 51.98667 0.17649 5124 ft 266 kts 270°
2026-05-04 07:18 51.98667 0.14633 5772 ft 270 kts 270°
2026-05-04 07:19 51.98664 0.11547 6075 ft 271 kts 270°
2026-05-04 07:19 51.98678 0.08485 6753 ft 272 kts 272°
2026-05-04 07:19 51.98694 0.05441 7434 ft 274 kts 265°
2026-05-04 07:19 51.98413 0.02338 8125 ft 275 kts 259°
2026-05-04 07:20 51.98060 -0.00726 8807 ft 277 kts 258°
2026-05-04 07:20 51.97685 -0.03775 9463 ft 280 kts 257°
2026-05-04 07:20 51.97144 -0.06806 10067 ft 282 kts 242°
2026-05-04 07:20 51.95945 -0.09369 10360 ft 296 kts 219°
2026-05-04 07:22 51.79224 -0.10226 12419 ft 375 kts 179°
2026-05-04 07:22 51.76604 -0.10066 12932 ft 378 kts 179°
2026-05-04 07:23 51.73964 -0.09907 13459 ft 381 kts 179°
2026-05-04 07:23 51.71308 -0.09747 13943 ft 383 kts 179°
2026-05-04 07:23 51.68630 -0.09581 14366 ft 386 kts 179°
2026-05-04 07:23 51.65944 -0.09416 14781 ft 388 kts 179°
2026-05-04 07:24 51.63239 -0.09249 15200 ft 390 kts 179°
2026-05-04 07:24 51.60517 -0.09083 15580 ft 391 kts 179°
2026-05-04 07:24 51.58230 -0.08942 15903 ft 393 kts 179°
2026-05-04 07:24 51.55490 -0.08775 16285 ft 395 kts 179°
2026-05-04 07:25 51.52740 -0.08603 16664 ft 397 kts 179°
2026-05-04 07:26 51.33668 -0.07412 19200 ft 409 kts 179°
2026-05-04 07:27 51.30821 -0.07242 19562 ft 410 kts 179°
2026-05-04 07:27 51.27962 -0.07070 19922 ft 412 kts 179°
2026-05-04 07:27 51.25085 -0.06893 20286 ft 414 kts 180°
2026-05-04 07:27 51.22200 -0.06716 20657 ft 416 kts 180°
2026-05-04 07:28 51.19306 -0.06536 21016 ft 418 kts 180°
2026-05-04 07:28 51.16397 -0.06352 21372 ft 419 kts 180°
2026-05-04 07:28 51.13470 -0.06173 21734 ft 421 kts 180°
2026-05-04 07:28 51.10538 -0.06000 22073 ft 423 kts 180°
2026-05-04 07:29 51.07593 -0.05828 22425 ft 424 kts 180°
2026-05-04 07:29 51.04639 -0.05652 22770 ft 426 kts 180°
2026-05-04 07:29 51.01669 -0.05476 23110 ft 428 kts 180°
2026-05-04 07:29 50.98683 -0.05295 23447 ft 430 kts 180°
2026-05-04 07:30 50.95687 -0.05109 23749 ft 432 kts 180°
2026-05-04 07:30 50.92684 -0.04921 24058 ft 433 kts 180°
2026-05-04 07:30 50.89674 -0.04731 24379 ft 433 kts 180°
2026-05-04 07:30 50.86663 -0.04539 24701 ft 433 kts 180°
2026-05-04 07:31 50.83654 -0.04350 25016 ft 433 kts 180°
2026-05-04 07:31 50.80643 -0.04170 25316 ft 433 kts 180°
2026-05-04 07:33 50.60586 -0.02986 27096 ft 430 kts 180°
2026-05-04 07:33 50.57611 -0.02803 27434 ft 427 kts 180°
2026-05-04 07:33 50.54655 -0.02627 27768 ft 424 kts 180°
2026-05-04 07:33 50.51712 -0.02460 28089 ft 422 kts 180°
2026-05-04 07:34 50.48784 -0.02295 28412 ft 419 kts 180°
2026-05-04 07:34 50.45877 -0.02125 28732 ft 417 kts 180°
2026-05-04 07:34 50.42983 -0.01949 29050 ft 415 kts 180°
2026-05-04 07:34 50.40100 -0.01773 29353 ft 413 kts 180°
2026-05-04 07:35 50.37239 -0.01602 29664 ft 411 kts 180°
2026-05-04 07:35 50.34389 -0.01433 29958 ft 408 kts 180°
2026-05-04 07:35 50.31559 -0.01268 30235 ft 407 kts 180°
2026-05-04 07:35 50.28734 -0.01101 30426 ft 406 kts 180°
2026-05-04 07:36 50.25906 -0.00934 30597 ft 407 kts 180°
2026-05-04 07:36 50.23075 -0.00770 30767 ft 408 kts 180°
2026-05-04 07:38 50.03275 0.02664 31947 ft 415 kts 169°
2026-05-04 07:38 50.00472 0.03770 32114 ft 416 kts 169°
2026-05-04 07:38 49.97667 0.04872 32278 ft 416 kts 169°
2026-05-04 07:38 49.94857 0.05972 32450 ft 417 kts 169°
2026-05-04 07:39 49.92047 0.07071 32637 ft 417 kts 169°
2026-05-04 07:39 49.89233 0.08171 32802 ft 417 kts 169°
2026-05-04 07:39 49.86418 0.09276 32975 ft 417 kts 168°
2026-05-04 07:39 49.83602 0.10384 33152 ft 418 kts 168°
2026-05-04 07:40 49.80786 0.11485 33332 ft 418 kts 169°
2026-05-04 07:40 49.77964 0.12586 33502 ft 418 kts 168°
2026-05-04 07:40 49.75186 0.13668 33675 ft 418 kts 169°
2026-05-04 07:40 49.72368 0.14764 33847 ft 418 kts 168°
2026-05-04 07:41 49.69547 0.15864 34018 ft 418 kts 168°
2026-05-04 07:41 49.66734 0.16965 34157 ft 418 kts 168°
2026-05-04 07:41 49.63911 0.18087 34281 ft 419 kts 168°
2026-05-04 07:41 49.61088 0.19224 34410 ft 419 kts 168°
2026-05-04 07:42 49.58261 0.20375 34526 ft 419 kts 168°
2026-05-04 07:42 49.55441 0.21524 34649 ft 420 kts 168°
2026-05-04 07:42 49.52614 0.22669 34768 ft 420 kts 168°
2026-05-04 07:42 49.49785 0.23810 34888 ft 421 kts 168°
2026-05-04 07:43 49.46954 0.24945 35007 ft 421 kts 168°
2026-05-04 07:43 49.44121 0.26075 35130 ft 421 kts 168°
2026-05-04 07:43 49.41283 0.27205 35246 ft 421 kts 168°
2026-05-04 07:43 49.38448 0.28333 35365 ft 421 kts 168°
2026-05-04 07:44 49.35610 0.29461 35487 ft 421 kts 168°
2026-05-04 07:44 49.32775 0.30590 35605 ft 421 kts 168°
2026-05-04 07:44 49.29936 0.31725 35730 ft 421 kts 168°
2026-05-04 07:44 49.27106 0.32892 35871 ft 421 kts 167°
2026-05-04 07:45 49.24283 0.34088 35980 ft 422 kts 167°
2026-05-04 07:45 49.21448 0.35299 36002 ft 424 kts 167°
2026-05-04 07:45 49.15747 0.37721 35996 ft 425 kts 167°
2026-05-04 07:46 49.10046 0.40115 35991 ft 425 kts 167°
2026-05-04 07:46 49.04345 0.42511 35992 ft 425 kts 167°
2026-05-04 07:47 48.98645 0.44895 35986 ft 425 kts 167°
2026-05-04 07:49 48.75853 0.54315 35992 ft 425 kts 168°
2026-05-04 07:49 48.70130 0.56552 35995 ft 425 kts 168°
2026-05-04 07:50 48.64411 0.58772 36000 ft 424 kts 168°
2026-05-04 07:50 48.58691 0.60995 35994 ft 424 kts 168°
2026-05-04 07:51 48.52937 0.63237 35980 ft 429 kts 168°
2026-05-04 07:51 48.47134 0.65557 35977 ft 434 kts 167°
2026-05-04 07:52 48.41291 0.67955 35975 ft 436 kts 167°
2026-05-04 07:52 48.35422 0.70352 35976 ft 437 kts 167°
2026-05-04 07:54 48.11977 0.79686 35979 ft 437 kts 168°
2026-05-04 07:55 48.06095 0.81974 35990 ft 437 kts 168°
2026-05-04 07:55 48.00218 0.84270 35993 ft 436 kts 168°
2026-05-04 07:56 47.94346 0.86572 35991 ft 436 kts 167°
2026-05-04 07:56 47.88474 0.88876 35991 ft 436 kts 168°
2026-05-04 07:57 47.82607 0.91156 35989 ft 436 kts 168°
2026-05-04 07:57 47.76742 0.93431 35987 ft 435 kts 168°
2026-05-04 07:58 47.70875 0.95694 35993 ft 436 kts 168°
2026-05-04 07:58 47.65010 0.97946 35999 ft 435 kts 168°
2026-05-04 07:59 47.59153 1.00193 35991 ft 435 kts 168°
2026-05-04 07:59 47.53301 1.02447 35992 ft 435 kts 168°
2026-05-04 08:00 47.47439 1.04695 35995 ft 435 kts 168°
2026-05-04 08:02 47.23628 1.05991 35988 ft 430 kts 182°
2026-05-04 08:02 47.17642 1.05851 35990 ft 430 kts 182°
2026-05-04 08:03 47.11659 1.05704 35990 ft 430 kts 182°
2026-05-04 08:03 47.05668 1.05561 35989 ft 430 kts 182°
2026-05-04 08:04 46.99680 1.05409 35989 ft 430 kts 183°
2026-05-04 08:04 46.93696 1.05149 35994 ft 430 kts 184°
2026-05-04 08:05 46.87717 1.04863 35996 ft 430 kts 184°
2026-05-04 08:05 46.81732 1.04601 35994 ft 430 kts 183°
2026-05-04 08:06 46.75743 1.04348 35994 ft 430 kts 183°
2026-05-04 08:06 46.69756 1.04095 35992 ft 430 kts 184°
2026-05-04 08:08 46.48895 1.04234 35991 ft 434 kts 170°
2026-05-04 08:08 46.45959 1.05228 35994 ft 434 kts 170°
2026-05-04 08:11 46.19497 1.14043 35985 ft 434 kts 170°
2026-05-04 08:11 46.10665 1.16956 35990 ft 433 kts 170°
2026-05-04 08:12 46.04782 1.18892 35990 ft 433 kts 170°
2026-05-04 08:12 45.98902 1.20834 35988 ft 433 kts 170°
2026-05-04 08:13 45.93025 1.22780 35988 ft 433 kts 170°
2026-05-04 08:13 45.87141 1.24702 35988 ft 434 kts 171°
2026-05-04 08:14 45.81256 1.26618 35988 ft 434 kts 171°
2026-05-04 08:16 45.57757 1.34279 35992 ft 433 kts 171°
2026-05-04 08:16 45.51871 1.36172 35988 ft 433 kts 171°
2026-05-04 08:17 45.45989 1.38067 35986 ft 433 kts 171°
2026-05-04 08:17 45.40101 1.39972 35990 ft 434 kts 171°
2026-05-04 08:19 45.17552 1.47210 35989 ft 434 kts 171°
2026-05-04 08:20 45.11659 1.49091 35989 ft 434 kts 171°
2026-05-04 08:20 45.05769 1.50964 35988 ft 434 kts 171°
2026-05-04 08:21 44.99881 1.52828 35988 ft 434 kts 171°
2026-05-04 08:21 44.93990 1.54690 35989 ft 434 kts 171°
2026-05-04 08:22 44.88099 1.56560 35990 ft 434 kts 171°
2026-05-04 08:24 44.64571 1.63974 35988 ft 434 kts 171°
2026-05-04 08:24 44.58680 1.65812 35988 ft 434 kts 172°
2026-05-04 08:25 44.52790 1.67652 35988 ft 434 kts 171°
2026-05-04 08:25 44.46894 1.69492 35991 ft 433 kts 173°
2026-05-04 08:27 44.23108 1.73574 35996 ft 431 kts 177°
2026-05-04 08:28 44.17149 1.74594 35987 ft 432 kts 177°
2026-05-04 08:28 44.11180 1.75606 35992 ft 432 kts 177°
2026-05-04 08:29 44.05218 1.76597 35995 ft 432 kts 177°
2026-05-04 08:31 43.81381 1.80566 35995 ft 432 kts 178°
2026-05-04 08:33 43.57478 1.84520 36004 ft 433 kts 178°
2026-05-04 08:35 43.33555 1.88432 35981 ft 433 kts 179°
2026-05-04 08:35 43.27560 1.89110 35980 ft 431 kts 181°
2026-05-04 08:37 43.06568 1.90939 35988 ft 432 kts 181°
2026-05-04 08:38 43.00607 1.91521 35986 ft 432 kts 181°
2026-05-04 08:38 42.94604 1.92097 35984 ft 432 kts 181°
2026-05-04 08:40 42.73653 1.94066 35295 ft 420 kts 181°
2026-05-04 08:40 42.70789 1.94347 35151 ft 406 kts 181°
2026-05-04 08:40 42.68008 1.94622 34903 ft 396 kts 182°
2026-05-04 08:41 42.65292 1.94970 34609 ft 390 kts 180°
2026-05-04 08:41 42.62586 1.95448 33986 ft 393 kts 178°
2026-05-04 08:41 42.59908 1.96016 33576 ft 387 kts 177°
2026-05-04 08:41 42.57294 1.96607 32984 ft 383 kts 177°
2026-05-04 08:42 42.54650 1.97204 32225 ft 378 kts 178°
2026-05-04 08:42 42.52104 1.97756 31521 ft 373 kts 178°
2026-05-04 08:42 42.49542 1.98290 30370 ft 373 kts 178°
2026-05-04 08:42 42.46979 1.98802 28876 ft 377 kts 178°
2026-05-04 08:43 42.44313 1.99313 27876 ft 394 kts 178°
2026-05-04 08:43 42.41554 1.99841 27080 ft 407 kts 177°
2026-05-04 08:43 42.38726 2.00395 26017 ft 414 kts 176°
2026-05-04 08:43 42.35855 2.00956 25019 ft 418 kts 177°
2026-05-04 08:44 42.32952 2.01418 24015 ft 423 kts 178°
2026-05-04 08:44 42.30010 2.01786 23106 ft 423 kts 179°
2026-05-04 08:46 42.11532 1.96067 18834 ft 405 kts 224°
2026-05-04 08:46 42.09477 1.93460 18380 ft 405 kts 224°
2026-05-04 08:46 42.07422 1.90863 17891 ft 404 kts 224°
2026-05-04 08:46 42.05373 1.88280 17446 ft 403 kts 223°
2026-05-04 08:47 42.03334 1.85713 16993 ft 400 kts 223°
2026-05-04 08:47 42.01306 1.83164 16559 ft 398 kts 223°
2026-05-04 08:47 41.99289 1.80628 16117 ft 396 kts 223°
2026-05-04 08:47 41.97309 1.78138 15685 ft 394 kts 223°
2026-05-04 08:48 41.95202 1.75733 15246 ft 392 kts 216°
2026-05-04 08:48 41.92984 1.73611 14817 ft 391 kts 216°
2026-05-04 08:48 41.90802 1.71529 14399 ft 389 kts 216°
2026-05-04 08:48 41.88606 1.69433 13971 ft 387 kts 216°
2026-05-04 08:49 41.86415 1.67344 13514 ft 384 kts 216°
2026-05-04 08:50 41.75666 1.57138 11392 ft 278 kts 216°
2026-05-04 08:50 41.74034 1.55756 11127 ft 277 kts 208°
2026-05-04 08:51 41.72262 1.54770 10905 ft 275 kts 199°
2026-05-04 08:51 41.70387 1.54188 10810 ft 278 kts 192°
2026-05-04 08:51 41.68488 1.53713 10693 ft 277 kts 193°
2026-05-04 08:51 41.66592 1.53231 10573 ft 277 kts 193°
2026-05-04 08:52 41.64701 1.52747 10453 ft 276 kts 193°
2026-05-04 08:52 41.62816 1.52260 10330 ft 276 kts 193°
2026-05-04 08:52 41.60936 1.51776 10201 ft 275 kts 193°
2026-05-04 08:52 41.59051 1.51294 10083 ft 275 kts 193°
2026-05-04 08:53 41.57195 1.50719 9959 ft 273 kts 202°
2026-05-04 08:54 41.51463 1.35805 9135 ft 271 kts 251°
2026-05-04 08:55 41.50920 1.33404 9021 ft 271 kts 252°
2026-05-04 08:55 41.50374 1.30998 8903 ft 271 kts 252°
2026-05-04 08:55 41.49829 1.28597 8790 ft 270 kts 251°
2026-05-04 08:55 41.49291 1.26229 8670 ft 269 kts 252°
2026-05-04 08:57 41.45497 1.09536 7845 ft 268 kts 252°
2026-05-04 09:01 41.34426 0.80303 6228 ft 266 kts 197°
2026-05-04 09:01 41.32648 0.79613 6114 ft 266 kts 198°
2026-05-04 09:01 41.30870 0.78920 5989 ft 266 kts 198°
2026-05-04 09:01 41.29092 0.78225 5874 ft 266 kts 198°
2026-05-04 09:02 41.27335 0.77539 5748 ft 258 kts 198°
2026-05-04 09:02 41.25661 0.76886 5615 ft 244 kts 198°
2026-05-04 09:02 41.24026 0.76575 5445 ft 235 kts 178°
2026-05-04 09:02 41.22437 0.77089 5370 ft 238 kts 157°
2026-05-04 09:03 41.21085 0.78339 5184 ft 235 kts 139°
2026-05-04 09:03 41.19908 0.79748 5040 ft 221 kts 140°
2026-05-04 09:03 41.18788 0.81072 4818 ft 217 kts 140°
2026-05-04 09:03 41.17643 0.82423 4615 ft 217 kts 140°
2026-05-04 09:04 41.16533 0.83732 4430 ft 216 kts 140°
2026-05-04 09:04 41.15416 0.85050 4251 ft 215 kts 140°
2026-05-04 09:04 41.14303 0.86361 4072 ft 214 kts 140°
2026-05-04 09:04 41.13193 0.87666 3901 ft 213 kts 140°
2026-05-04 09:05 41.12085 0.88969 3739 ft 212 kts 140°
2026-05-04 09:05 41.10982 0.90265 3561 ft 212 kts 140°
2026-05-04 09:05 41.09885 0.91558 3378 ft 207 kts 140°
2026-05-04 09:05 41.08870 0.92818 3220 ft 192 kts 132°
2026-05-04 09:06 41.08263 0.94314 3042 ft 180 kts 108°
2026-05-04 09:07 41.11100 1.04514 2011 ft 169 kts 65°
2026-05-04 09:08 41.11588 1.05889 1862 ft 159 kts 70°
2026-05-04 09:08 41.11987 1.07228 1645 ft 154 kts 70°
2026-05-04 09:08 41.12362 1.08521 1438 ft 151 kts 70°
2026-05-04 09:08 41.12736 1.09813 1241 ft 149 kts 70°
2026-05-04 09:09 41.13108 1.11096 1020 ft 149 kts 69°
2026-05-04 09:09 41.13482 1.12371 797 ft 148 kts 69°
2026-05-04 09:09 41.13848 1.13645 582 ft 148 kts 69°
2026-05-04 09:09 41.14211 1.14913 371 ft 146 kts 68°
2026-05-04 09:10 41.14580 1.16165 254 ft 143 kts 69°
2026-05-04 09:10 41.14897 1.17254 240 ft 100 kts 69°
2026-05-04 09:10 41.15036 1.17732 240 ft 67 kts 69°
2026-05-04 09:10 41.15143 1.18100 240 ft 22 kts 69°
2026-05-04 09:11 41.15203 1.18273 240 ft 20 kts 47°
2026-05-04 09:11 41.15314 1.18333 240 ft 14 kts 353°
2026-05-04 09:11 41.15369 1.18253 240 ft 11 kts 264°
2026-05-04 09:11 41.15337 1.18158 240 ft 11 kts 245°
2026-05-04 09:12 41.15310 1.18067 240 ft 10 kts 250°
2026-05-04 09:12 41.15286 1.17982 240 ft 9 kts 250°
2026-05-04 09:14 41.15255 1.17874 240 ft 0 kts 249°